Fortuna, CA

11:28 PM PDT on September 24, 2017 (GMT -0700)
Rohnerville

Weather History for KFOT - December, 2012

Change the Weather History Date:

Sunday, December 9, 2012

  Actual Average (KEKA) Record (KEKA)
Temperature  
Mean Temperature 45 °F -  
Max Temperature 53 °F 55 °F 67 °F (2014)
Min Temperature 37 °F 42 °F 21 °F (1972)
Degree Days  
Heating Degree Days 20    
Moisture  
Dew Point 42 °F    
Average Humidity 90    
Maximum Humidity 100    
Minimum Humidity 62    
Precipitation  
Precipitation 0.00 in - - ()
Sea Level Pressure  
Sea Level Pressure 30.32 in    
Wind  
Wind Speed 3 mph (WNW)    
Max Wind Speed 12 mph    
Max Gust Speed 18 mph    
Visibility 10 miles    
Events      
Averages and records for this station are not official NWS values.
T = Trace of Precipitation, MM = Missing Value Source: NWS Daily Summary

Daily Weather History Graph

Daily Weather History Graph

Search for Another Location

Airport or City:

Trip Planner

Search our weather history database for the weather conditions in past years. The results will help you decide how hot, cold, wet, or windy it might be!

Date:

Astronomy

Dec. 09, 2012 Rise Set
Actual Time 7:28 AM PST 4:49 PM PST
Civil Twilight 6:58 AM PST 5:20 PM PST
Nautical Twilight 6:23 AM PST 5:54 PM PST
Astronomical Twilight 5:50 AM PST 6:27 PM PST
Moon 3:07 AM PST (12/9) 2:00 PM PST (12/9)
Length of Visible Light 10h 22m
Length of Day
9h 20m
Waning Crescent, 17% of the Moon is Illuminated
Dec 9
Waning Crescent
Dec 13
New
Dec 19
First Quarter
Dec 28
Full
Jan 4
Last Quarter

Hourly Weather History & Observations

Time (PST) Temp. Windchill Dew Point Humidity Pressure Visibility Wind Dir Wind Speed Gust Speed Precip Events Conditions
12:15 AM 44.6 °F 42.2 °F 42.8 °F 93% 30.27 in 10.0 mi WSW 4.6 mph - N/A   Clear
12:35 AM 42.8 °F - 41.0 °F 93% 30.28 in 10.0 mi Calm Calm - N/A   Clear
12:55 AM 41.0 °F - 41.0 °F 100% 30.28 in 10.0 mi Calm Calm - N/A   Clear
1:15 AM 39.2 °F - 39.2 °F 100% 30.28 in 9.0 mi Calm Calm - N/A   Clear
1:35 AM 37.4 °F - 37.4 °F 100% 30.29 in 10.0 mi Calm Calm - N/A   Clear
1:55 AM 39.2 °F - 39.2 °F 100% 30.30 in 10.0 mi Calm Calm - N/A   Clear
2:15 AM 39.2 °F - 39.2 °F 100% 30.30 in 10.0 mi Calm Calm - N/A   Clear
2:35 AM 39.2 °F 35.0 °F 39.2 °F 100% 30.29 in 10.0 mi SE 5.8 mph - N/A   Clear
2:55 AM 39.2 °F - 39.2 °F 100% 30.29 in 10.0 mi Calm Calm - N/A   Clear
3:15 AM 37.4 °F - 37.4 °F 100% 30.31 in 10.0 mi Calm Calm - N/A   Clear
3:55 AM 37.4 °F - 37.4 °F 100% 30.30 in 10.0 mi Calm Calm - N/A   Clear
4:15 AM 37.4 °F 34.9 °F 37.4 °F 100% 30.30 in 10.0 mi SSE 3.5 mph - N/A   Clear
4:35 AM 37.4 °F 32.8 °F 37.4 °F 100% 30.30 in 10.0 mi SSE 5.8 mph - N/A   Clear
4:55 AM 39.2 °F - 39.2 °F 100% 30.30 in 10.0 mi Calm Calm - N/A   Clear
5:15 AM 37.4 °F - 37.4 °F 100% 30.30 in 10.0 mi Calm Calm - N/A   Clear
5:35 AM 37.4 °F - 37.4 °F 100% 30.30 in 10.0 mi Calm Calm - N/A   Clear
5:55 AM 37.4 °F - 37.4 °F 100% 30.30 in 10.0 mi Calm Calm - N/A   Clear
6:35 AM 41.0 °F - 39.2 °F 93% 30.32 in 10.0 mi Calm Calm - N/A   Clear
6:55 AM 39.2 °F - 37.4 °F 93% 30.33 in 10.0 mi Calm Calm - N/A   Clear
7:15 AM 39.2 °F - 39.2 °F 100% 30.33 in 10.0 mi Calm Calm - N/A   Clear
7:35 AM 39.2 °F 35.0 °F 39.2 °F 100% 30.33 in 10.0 mi West 5.8 mph - N/A   Clear
7:55 AM 41.0 °F - 39.2 °F 93% 30.34 in 10.0 mi Calm Calm - N/A   Clear
8:15 AM 39.2 °F - 39.2 °F 100% 30.35 in 10.0 mi Calm Calm - N/A   Clear
8:35 AM 41.0 °F - 41.0 °F 100% 30.36 in 10.0 mi Calm Calm - N/A   Clear
8:55 AM 41.0 °F - 41.0 °F 100% 30.36 in 10.0 mi Calm Calm - N/A   Clear
9:15 AM 46.4 °F - 42.8 °F 87% 30.37 in 10.0 mi Calm Calm - N/A   Clear
9:35 AM 48.2 °F - 41.0 °F 76% 30.37 in 10.0 mi NW 3.5 mph - N/A   Clear
9:55 AM 46.4 °F 45.2 °F 42.8 °F 87% 30.37 in 10.0 mi NW 3.5 mph - N/A   Clear
10:15 AM 46.4 °F 44.3 °F 42.8 °F 87% 30.37 in 10.0 mi NW 4.6 mph - N/A   Clear
10:35 AM 48.2 °F - 44.6 °F 87% 30.36 in 10.0 mi Calm Calm - N/A   Clear
10:55 AM 50.0 °F - 42.8 °F 76% 30.35 in 10.0 mi WNW 10.4 mph - N/A   Clear
11:15 AM 50.0 °F - 42.8 °F 76% 30.34 in 10.0 mi WNW 9.2 mph - N/A   Clear
11:35 AM 51.8 °F - 42.8 °F 71% 30.34 in 10.0 mi WNW 9.2 mph - N/A   Clear
11:55 AM 51.8 °F - 41.0 °F 67% 30.33 in 10.0 mi WNW 9.2 mph - N/A   Clear
12:35 PM 53.6 °F - 41.0 °F 62% 30.32 in 10.0 mi WNW 11.5 mph 16.1 mph N/A   Clear
12:55 PM 53.6 °F - 41.0 °F 62% 30.32 in 10.0 mi WNW 11.5 mph - N/A   Clear
1:15 PM 53.6 °F - 41.0 °F 62% 30.31 in 10.0 mi WNW 11.5 mph - N/A   Clear
1:35 PM 53.6 °F - 41.0 °F 62% 30.31 in 10.0 mi WNW 11.5 mph - N/A   Clear
1:55 PM 53.6 °F - 42.8 °F 67% 30.30 in 10.0 mi WNW 10.4 mph - N/A   Clear
2:15 PM 53.6 °F - 41.0 °F 62% 30.30 in 10.0 mi WNW 11.5 mph - N/A   Clear
2:35 PM 53.6 °F - 42.8 °F 67% 30.30 in 10.0 mi WNW 10.4 mph - N/A   Clear
2:55 PM 53.6 °F - 42.8 °F 67% 30.30 in 10.0 mi WNW 11.5 mph 18.4 mph N/A   Clear
3:15 PM 53.6 °F - 41.0 °F 62% 30.31 in 10.0 mi NW 10.4 mph - N/A   Clear
3:35 PM 53.6 °F - 42.8 °F 67% 30.31 in 10.0 mi NW 8.1 mph - N/A   Clear
3:55 PM 51.8 °F - 46.4 °F 82% 30.31 in 10.0 mi NW 8.1 mph - N/A   Clear
4:15 PM 50.0 °F - 46.4 °F 87% 30.31 in 10.0 mi WNW 9.2 mph - N/A   Clear
4:35 PM 50.0 °F - 46.4 °F 87% 30.31 in 10.0 mi NW 10.4 mph - N/A   Clear
4:55 PM 50.0 °F - 46.4 °F 87% 30.31 in 10.0 mi WNW 6.9 mph - N/A   Clear
5:15 PM 48.2 °F - 46.4 °F 93% 30.32 in 10.0 mi NW 6.9 mph - N/A   Clear
5:35 PM 48.2 °F - 48.2 °F 100% 30.32 in 10.0 mi WNW 8.1 mph - N/A   Clear
5:55 PM 48.2 °F - 48.2 °F 100% 30.32 in 10.0 mi NW 6.9 mph - N/A   Clear
6:35 PM 48.2 °F - 48.2 °F 100% 30.32 in 10.0 mi NW 6.9 mph - N/A   Scattered Clouds
6:55 PM 48.2 °F - 48.2 °F 100% 30.33 in 10.0 mi Calm Calm - N/A   Mostly Cloudy
7:15 PM 50.0 °F - 50.0 °F 100% 30.32 in 10.0 mi Calm Calm - N/A   Overcast
7:35 PM 50.0 °F - 50.0 °F 100% 30.32 in 10.0 mi WNW 3.5 mph - N/A   Mostly Cloudy
8:15 PM 46.4 °F - 46.4 °F 100% 30.32 in 10.0 mi Calm Calm - N/A   Scattered Clouds
8:35 PM 46.4 °F - 46.4 °F 100% 30.32 in 10.0 mi Calm Calm - N/A   Scattered Clouds
8:55 PM 46.4 °F - 46.4 °F 100% 30.32 in 10.0 mi Calm Calm - N/A   Partly Cloudy
9:15 PM 42.8 °F 38.6 °F 42.8 °F 100% 30.32 in 10.0 mi SE 6.9 mph - N/A   Mostly Cloudy
9:35 PM 44.6 °F 42.2 °F 44.6 °F 100% 30.32 in 10.0 mi SE 4.6 mph - N/A   Partly Cloudy
9:55 PM 44.6 °F 40.7 °F 44.6 °F 100% 30.32 in 10.0 mi SSE 6.9 mph - N/A   Clear
10:15 PM 42.8 °F 39.3 °F 42.8 °F 100% 30.33 in 10.0 mi SE 5.8 mph - N/A   Scattered Clouds
10:35 PM 44.6 °F 40.7 °F 44.6 °F 100% 30.33 in 10.0 mi SE 6.9 mph - N/A   Mostly Cloudy
10:55 PM 44.6 °F 40.2 °F 44.6 °F 100% 30.33 in 10.0 mi ESE 8.1 mph - N/A   Overcast
11:15 PM 44.6 °F - 44.6 °F 100% 30.33 in 10.0 mi Calm Calm - N/A   Scattered Clouds
11:55 PM 42.8 °F 41.1 °F 42.8 °F 100% 30.33 in 10.0 mi SE 3.5 mph - N/A   Partly Cloudy